Погода в Кукарине

Россия / Ивановская область     56°50′50″N   40°55′30″E
темп.,
°C
ветер,
м/с
пор.,
м/с
влажн.,
%
обл.,
%
осадки,
мм/ч
давл.,
гПа
погр.,
м
17 августа, ср
ср1700:00+19вюв287064 0.0 1024176
03:00+18в267275 0.0 1023151
06:00+18в2671100 0.0 1023154
09:00+23в355623 0.0 1023461
12:00+27вюв464199 0.0 10222089
15:00+29вюв45335 0.0 10212413
18:00+26в37445 0.0 1020477
21:00+20в310690 0.0 1020206
18 августа, чт
чт1800:00+18в310760 0.0 1021209
03:00+17в38813 0.0 1021178
06:00+17в28825 0.0 1022190
09:00+23в47522 0.0 1022626
12:00+27в46407 0.0 10221770
15:00+28в563521 0.0 10212040
18:00+25в484326 0.0 1022735
21:00+19в2664100 0.0 1023129
19 августа, пт
пт1900:00+17всв3106999 0.0 1024214
03:00+17в31179100 0.0 1025280
06:00+17в31280100 0.0 1026408
09:00+21в5950100 0.0 1027653
12:00+24в582998 0.0 10281345
15:00+25вюв6826100 0.0 10281628
18:00+22вюв4938100 0.0 1028967
21:00+16в312563 0.0 1028329
20 августа, сб
сб2000:00+15в413620 0.0 1029357
03:00+14в310670 0.0 1029251
06:00+13вюв312660 0.0 1030257
09:00+21юв48360 0.0 1030496
12:00+26юв5625100 0.0 10291488
15:00+25вюв462584 0.0 10281588
18:00+23вюв4933100 0.0 1028409
21:00+17вюв31152100 0.0 1028232
21 августа, вс
вс2100:00+14вюв31062100 0.0 1028191
03:00+13вюв39666 0.0 1028163
06:00+12вюв28666 0.0 1028156
09:00+20юв363959 0.0 1028455
12:00+25юв462628 0.0 10271466
15:00+27юв452261 0.0 10261988
18:00+23вюв2538100 0.0 1025119
21:00+17вюв3855100 0.0 1026131